User: anonymous   Login
Location: Unspecified
(0.0000°N, 0.0000°E)
Time: 05:23:56
(UTC+01:00)
Language:

NOAA 12 - Orbit

View from above orbital plane
View from above orbital plane
View from above satellite
View from above satellite

Ground track
Ground track

The orbit data is extracted from the following two-line orbital elements,

1 21263U 91032A   15025.56644002  .00000044  00000-0  36827-4 0  5869
2 21263 098.6440 054.6045 0012706 312.3880 201.0938 14.25725567232242
Epoch (UTC): 25 January 2015 13:35:40
Eccentricity: 0.0012706
inclination: 98.6440°
perigee height: 797 km
apogee height: 815 km
right ascension of ascending node: 54.6045°
argument of perigee: 312.3880°
revolutions per day: 14.25725567
mean anomaly at epoch: 201.0938°
orbit number at epoch: 23224

The dashed part of the orbit path shows where the satellite is in the earth's shadow,  

DLR